This demonstration page uses our WeatherBlox Daily Observations layout. Learn more.

Hourly Observations for February 28, 2019

Temp ( °F °C ) Dew Point ( °F °C ) Humidity (%) Winds ( mph kmh ) Pressure ( in mb ) Visibility ( mi km ) Precip ( " mm )
12:15 am 00:15 Clear 7 -13.7 3 -16.2 82 82 Calm 30.43 1031 10 16.0934 0 0
4:35 am 04:35 Partly Cloudy 8 -13.5 3 -16 82 82 S 3 6 30.36 1028 10 16.0934 0 0
4:55 am 04:55 Mostly Cloudy 6 -14.2 2 -16.5 83 83 Calm 30.36 1028 10 16.0934 0 0
5:15 am 05:15 Partly Cloudy 6 -14.7 2 -16.6 86 86 SSW 3 6 30.37 1029 10 16.0934 0 0
5:35 am 05:35 Mostly Cloudy 5 -14.8 2 -16.8 85 85 Calm 30.38 1029 10 16.0934 0 0
5:55 am 05:55 Mostly Cloudy 6 -14.7 2 -16.6 86 86 Calm 30.37 1029 10 16.0934 0 0
6:15 am 06:15 Mostly Cloudy 6 -14.6 2 -16.5 86 86 Calm 30.38 1029 10 16.0934 0 0
6:35 am 06:35 Partly Cloudy 5 -15 1 -17 85 85 Calm 30.38 1029 10 16.0934 0 0
6:55 am 06:55 Clear 4 -15.6 0 -17.6 85 85 Calm 30.38 1029 10 16.0934 0 0
7:15 am 07:15 Partly Cloudy 2 -16.7 -1 -18.5 86 86 SSE 5 7 30.39 1029 10 16.0934 0 0
7:35 am 07:35 Partly Cloudy 2 -16.5 -1 -18.3 86 86 Calm 30.39 1029 10 16.0934 0 0
7:55 am 07:55 Partly Cloudy 1 -17 -2 -19 85 85 Calm 30.4 1029 10 16.0934 0 0
8:15 am 08:15 Sunny 3 -16 0 -17.8 86 86 Calm 30.4 1029 10 16.0934 0 0
8:35 am 08:35 Sunny 4 -15.7 0 -17.6 85 85 Calm 30.41 1030 10 16.0934 0 0
8:55 am 08:55 Sunny 6 -14.5 2 -16.9 82 82 Calm 30.4 1030 10 16.0934 0 0
9:35 am 09:35 Sunny 9 -13 4 -15.8 80 80 S 7 11 30.38 1029 10 16.0934 0 0
9:55 am 09:55 Sunny 10 -12.5 4 -15.8 77 77 S 7 11 30.37 1028 10 16.0934 0 0
10:15 am 10:15 Sunny 11 -11.6 5 -15.2 75 75 S 7 11 30.35 1028 10 16.0934 0 0
10:35 am 10:35 Sunny 12 -11.3 5 -14.8 76 76 S 3 6 30.34 1027 10 16.0934 0 0
10:55 am 10:55 Sunny 12 -11 6 -14.6 75 75 S 6 9 30.33 1027 10 16.0934 0 0
11:15 am 11:15 Sunny 13 -10.5 6 -14.4 73 73 S 5 7 30.31 1026 10 16.0934 0 0
11:35 am 11:35 Sunny 15 -9.7 7 -13.8 72 72 S 9 15 30.29 1026 10 16.0934 0 0
11:55 am 11:55 Sunny 15 -9.3 8 -13.5 72 72 S 9 15 30.29 1026 10 16.0934 0 0
12:15 pm 12:15 Sunny 16 -8.8 8 -13.2 71 71 S 9 15 30.27 1025 10 16.0934 0 0
12:35 pm 12:35 Sunny 17 -8.2 9 -12.7 70 70 S 9 15 30.26 1025 10 16.0934 0 0
12:55 pm 12:55 Sunny 18 -7.7 10 -12.5 69 69 S 8 13 30.25 1024 10 16.0934 0 0
1:15 pm 13:15 Sunny 19 -7.5 10 -12.5 68 68 S 8 13 30.25 1024 10 16.0934 0 0
1:35 pm 13:35 Sunny 19 -7.1 11 -11.9 69 69 SSW 6 9 30.23 1024 10 16.0934 0 0
1:55 pm 13:55 Sunny 20 -6.8 11 -11.8 68 68 SSW 7 11 30.21 1023 10 16.0934 0 0
2:15 pm 14:15 Sunny 20 -6.4 11 -11.6 67 67 SW 6 9 30.2 1023 10 16.0934 0 0
2:35 pm 14:35 Sunny 21 -6.2 12 -11.2 68 68 SSW 6 9 30.18 1022 10 16.0934 0 0
2:55 pm 14:55 Sunny 21 -6 12 -11.2 67 67 S 5 7 30.17 1022 10 16.0934 0 0
3:15 pm 15:15 Sunny 21 -5.9 12 -11.1 67 67 SSW 5 7 30.17 1022 10 16.0934 0 0
3:35 pm 15:35 Sunny 21 -6 12 -11.3 66 66 SSW 3 6 30.18 1022 10 16.0934 0 0
3:55 pm 15:55 Sunny 21 -6 12 -11.2 67 67 SW 5 7 30.19 1022 10 16.0934 0 0
4:15 pm 16:15 Sunny 21 -5.9 12 -11 68 68 W 3 6 30.19 1022 10 16.0934 0 0
4:35 pm 16:35 Sunny 21 -6.1 12 -11 69 69 Calm 30.19 1023 10 16.0934 0 0
4:55 pm 16:55 Sunny 21 -6.2 12 -11.1 69 69 Calm 30.18 1022 10 16.0934 0 0
5:15 pm 17:15 Sunny 21 -6.1 13 -10.8 70 70 SSW 6 9 30.19 1023 10 16.0934 0 0
5:35 pm 17:35 Sunny 21 -6.2 12 -11 69 69 SSW 3 6 30.18 1022 10 16.0934 0 0
5:55 pm 17:55 Sunny 20 -6.6 13 -10.6 74 74 Calm 30.18 1022 10 16.0934 0 0
6:15 pm 18:15 Sunny 20 -6.5 13 -10.6 73 73 Calm 30.19 1022 10 16.0934 0 0
6:35 pm 18:35 Clear 20 -6.6 13 -10.5 74 74 SSW 3 6 30.2 1023 10 16.0934 0 0
6:55 pm 18:55 Clear 20 -6.8 13 -10.5 75 75 S 3 6 30.21 1023 10 16.0934 0 0
7:15 pm 19:15 Clear 19 -7 13 -10.4 77 77 Calm 30.21 1023 10 16.0934 0 0
7:35 pm 19:35 Clear 19 -7.4 13 -10.5 79 79 Calm 30.22 1023 10 16.0934 0 0
7:55 pm 19:55 Clear 18 -7.8 13 -10.5 81 81 SE 5 7 30.21 1023 10 16.0934 0 0
8:15 pm 20:15 Clear 17 -8.3 13 -10.8 82 82 SSE 3 6 30.22 1023 10 16.0934 0 0
8:35 pm 20:35 Clear 17 -8.3 13 -10.7 83 83 SSE 5 7 30.22 1023 10 16.0934 0 0
8:55 pm 20:55 Clear 17 -8.1 12 -11.2 79 79 SSW 3 6 30.23 1024 10 16.0934 0 0
9:15 pm 21:15 Clear 17 -8.3 12 -11.2 80 80 SSW 3 6 30.23 1024 10 16.0934 0 0
9:35 pm 21:35 Clear 17 -8.6 12 -11.2 82 82 Calm 30.22 1023 10 16.0934 0 0
9:55 pm 21:55 Clear 16 -8.8 11 -11.4 82 82 Calm 30.22 1023 10 16.0934 0 0
10:15 pm 22:15 Clear 15 -9.3 11 -11.7 83 83 SW 5 7 30.24 1024 10 16.0934 0 0
10:35 pm 22:35 Clear 14 -9.9 10 -12.1 84 84 SSW 3 6 30.23 1024 10 16.0934 0 0
10:55 pm 22:55 Clear 15 -9.5 11 -11.9 83 83 SSW 3 6 30.23 1024 10 16.0934 0 0
11:15 pm 23:15 Clear 11 -11.5 7 -13.9 83 83 Calm 30.23 1024 10 16.0934 0 0
11:35 pm 23:35 Clear 11 -11.6 8 -13.2 88 88 ESE 3 6 30.22 1023 10 16.0934 0 0
11:55 pm 23:55 Partly Cloudy 11 -11.8 8 -13.3 89 89 SSE 7 11 30.21 1023 10 16.0934 0 0

Powered by AerisWeather